Location: Wayland
(32.6094°N, 98.8289°W)
Time: 15:01:32
(UTC+00:00)

ISS - Visible Passes

Search period start: 23 July 2024 00:00
Search period end: 02 August 2024 00:00
Orbit: 409 x 423 km, 51.6° (Epoch: 23 July)

Date Brightness Start Highest point End Pass type
(mag) Time Alt. Az. Time Alt. Az. Time Alt. Az.
23 Jul -0.3 04:51:11 10° NNW 04:51:27 12° NNW 04:51:27 12° NNW visible
24 Jul -1.2 04:03:06 10° NNW 04:04:32 16° NNE 04:04:32 16° NNE visible
25 Jul -1.1 03:15:27 10° N 03:16:40 12° NNE 03:17:38 11° NE visible
25 Jul -0.2 04:50:27 10° NW 04:50:30 10° NW 04:50:30 10° NW visible
26 Jul -1.7 04:01:55 10° NW 04:03:37 26° NNW 04:03:37 26° NNW visible
27 Jul -2.4 03:13:31 10° NNW 03:16:24 27° NE 03:16:44 26° NE visible
28 Jul -1.6 02:25:21 10° N 02:27:34 17° NNE 02:29:47 10° ENE visible
28 Jul -1.5 04:01:17 10° WNW 04:02:46 23° WNW 04:02:46 23° WNW visible
29 Jul -4.0 03:12:25 10° NW 03:15:44 89° SW 03:15:58 76° SE visible
30 Jul -3.2 02:23:46 10° NNW 02:26:57 44° NE 02:29:11 17° ESE visible
30 Jul -0.7 04:01:59 10° WSW 04:02:04 10° WSW 04:02:04 10° WSW visible
31 Jul -2.0 03:11:59 10° WNW 03:14:41 23° SW 03:15:20 22° SSW visible
01 Aug -3.1 02:22:46 10° WNW 02:25:57 47° SW 02:28:40 13° SSE visible
